#timestamp,LO_Frequency,Hit,StdDev 
1621962015.7,286046998.4,N
1621962035.5,286046998.8,N
1621962055.3,286046998.9,N
1621962075.2,286046999.4,N
1621962095.0,286046999.6,N
1621962095.9,286046999.6,N
1621962115.7,286046999.5,N
1621962135.6,286046999.5,N
1621962155.4,286046996.5,Y
1621962175.3,286046998.9,P
1621962195.1,286046998.4,P
1621962196.0,286046998.4,P
1621962215.8,286046999.2,N
1621962235.7,286046996.7,Y
1621962255.5,286046998.3,P
1621962275.4,286046999.4,N
1621962295.2,286046998.3,P
1621962315.0,286047000.9,N
1621962315.9,286047000.9,N
1621962335.8,286046998.1,N
1621962355.6,286047000.8,N
1621962375.4,286047001.2,N
1621962395.3,286047000.0,N
1621962415.1,286047000.0,N
1621962435.9,286046999.9,N
1621962455.7,286047000.5,N
1621962475.5,286047000.9,N
1621962495.4,286047000.3,N
1621962515.2,286047000.0,N
1621962535.0,286047000.0,N
1621962535.9,286047000.0,N
1621962555.8,286047000.1,N
1621962575.6,286047000.5,N
1621962595.5,286047002.5,N
1621962615.3,286047002.0,N
1621962635.1,286047001.6,N
1621962655.9,286047001.8,N
1621962675.7,286047001.6,N
1621962695.5,286047004.0,Y
1621962715.4,286047003.9,P
1621962735.2,286047004.4,N
1621962755.1,286047003.1,N
1621962756.0,286047003.1,N
1621962775.8,286047003.7,N
1621962795.6,286047003.0,N
1621962815.5,286047003.7,Y
1621962835.3,286047001.0,P
1621962855.2,286047000.7,N
1621962875.9,286046999.9,N
1621962895.7,286047000.2,N
1621962915.6,286047000.3,N
1621962935.4,286046999.8,N
1621962955.2,286047000.5,N
1621962975.1,286047000.0,N
1621962976.0,286047000.0,N
1621962995.8,286047000.3,N
1621963015.7,286047000.4,N
1621963035.5,286047000.2,N
1621963055.3,286047000.6,N
1621963075.2,286047000.5,N
1621963095.0,286047000.1,N
1621963095.9,286047000.1,N
1621963115.8,286047002.8,Y
1621963135.6,286047001.0,P
1621963155.4,286047000.4,N
1621963175.3,286046998.1,P
1621963195.1,286047000.4,N
1621963215.8,286046999.9,N
1621963235.7,286047002.6,N
1621963255.5,286047002.8,N
1621963275.4,286047002.4,N
1621963295.2,286047002.0,N
1621963315.0,286047002.5,N
1621963315.9,286047002.5,N
1621963335.8,286047002.5,N
1621963355.6,286047001.5,N
1621963375.4,286047002.1,N
1621963395.3,286047002.2,N
1621963415.1,286047004.4,Y
1621963435.9,286047002.8,P
1621963455.7,286046999.8,N
1621963475.5,286047002.8,N
1621963495.4,286047002.3,N
1621963515.2,286047002.5,N
1621963535.1,286047002.5,N
1621963536.0,286047002.5,N
1621963555.8,286047002.7,N
1621963575.6,286047002.8,Y
1621963595.5,286046998.7,P
1621963615.3,286046998.1,N
1621963635.1,286046998.5,N
1621963655.9,286046998.7,N
1621963675.7,286046999.4,N
1621963695.6,286046998.4,N
1621963715.4,286047001.2,N
1621963735.2,286047001.1,N
1621963755.1,286046998.2,N
1621963756.0,286046998.2,N
1621963775.8,286046998.8,N
1621963795.7,286046998.2,N
1621963815.5,286046998.7,N
1621963835.3,286046998.8,N
1621963855.2,286046998.9,N
1621963875.0,286046998.5,N
1621963875.9,286046998.5,N
1621963895.8,286046998.3,N
1621963915.6,286046998.5,N
1621963935.4,286046998.6,N
1621963955.3,286046999.0,N
1621963975.1,286046998.4,N
1621963995.8,286046998.8,N
1621964015.7,286046998.7,N
1621964035.5,286046998.8,N
1621964055.4,286046998.8,N
1621964075.2,286046998.6,N
1621964095.0,286046999.1,N
1621964095.9,286046999.1,N
1621964115.8,286046999.6,N
1621964135.6,286046999.6,N
1621964155.4,286046996.5,Y
1621964175.3,286046998.6,P
1621964195.1,286046998.6,P
1621964215.9,286046998.9,P
1621964235.7,286046998.9,Y
1621964255.5,286047000.8,P
1621964275.4,286047000.8,N
1621964295.2,286047000.9,N
1621964315.1,286047000.7,N
1621964316.0,286047000.7,N
1621964335.8,286047000.8,N
1621964355.6,286047001.2,N
1621964375.5,286046998.5,N
1621964395.3,286046998.3,N
1621964415.1,286046998.3,N
1621964435.9,286046998.7,N
1621964455.7,286046998.3,N
1621964475.6,286046998.5,N
1621964495.4,286047001.1,N
1621964515.2,286047001.2,N
1621964535.1,286046999.0,N
1621964536.0,286046999.0,N
1621964555.8,286046998.4,N
1621964575.6,286046998.4,N
1621964595.5,286046998.2,N
1621964615.3,286046998.7,N
1621964635.2,286046998.8,N
1621964655.9,286046998.8,N
1621964675.7,286046999.0,N
1621964695.6,286046999.1,N
1621964715.4,286046999.2,N
1621964735.3,286046996.9,N
1621964755.1,286046997.0,N
1621964756.0,286046997.0,N
1621964775.8,286046997.1,N
1621964795.7,286046996.8,N
1621964815.5,286046997.6,N
1621964835.3,286046997.1,N
1621964855.2,286046997.4,N
1621964875.0,286046997.8,N
1621964875.9,286046997.8,N
1621964895.8,286046997.5,N
1621964915.6,286046997.7,N
1621964935.4,286046995.0,Y
1621964955.3,286046999.3,P
1621964975.1,286046999.5,N
1621964995.9,286046996.5,P
1621965015.7,286046999.5,N
1621965035.5,286046996.9,N
1621965055.4,286046996.7,N
1621965075.2,286046996.7,N
1621965095.0,286046997.2,N
1621965095.9,286046997.2,N
1621965115.8,286046997.4,N
1621965135.6,286046997.5,N
1621965155.5,286046997.5,N
1621965175.3,286046996.8,Y
1621965195.1,286046999.0,P
1621965215.9,286046999.3,N
1621965235.7,286046999.4,N
1621965255.6,286046999.2,N
1621965275.4,286046996.5,Y
1621965295.2,286046998.1,P
1621965315.1,286047000.7,N
1621965316.0,286047000.7,N
1621965335.8,286046999.8,N
1621965355.7,286047000.2,N
1621965375.5,286047000.2,N
1621965395.3,286047000.9,N
1621965415.2,286047000.8,N
1621965435.9,286047000.7,N
1621965455.7,286047000.5,N
1621965475.6,286047000.7,N
1621965495.4,286047001.2,N
1621965515.3,286047000.6,N
1621965535.1,286046998.1,N
1621965536.0,286046998.1,N
1621965555.8,286046998.1,N
1621965575.7,286046998.2,N
1621965595.5,286047001.1,N
